Weather History for KMLP - January, 2013

Change the Weather History Date:

Thursday, January 10, 2013

  Actual Average (K3TH) Record (K3TH)
Temperature  
Mean Temperature 20 °F -  
Max Temperature 24 °F 32 °F 37 °F (1997)
Min Temperature 15 °F 24 °F 26 °F (2000)
Degree Days  
Heating Degree Days 46    
Moisture  
Dew Point 17 °F    
Average Humidity 86    
Maximum Humidity 93    
Minimum Humidity 79    
Precipitation  
Precipitation 0.25 in - - ()
Sea Level Pressure  
Sea Level Pressure 29.65 in    
Wind  
Wind Speed 4 mph (NNW)    
Max Wind Speed 7 mph    
Max Gust Speed -    
Visibility 1 miles    
Events Fog , Snow    
Averages and records for this station are not official NWS values.
T = Trace of Precipitation, MM = Missing Value Source: NWS Daily Summary

Daily Weather History Graph

Daily Weather History Graph

Search for Another Location

Airport or City:

Trip Planner

Search our weather history database for the weather conditions in past years. The results will help you decide how hot, cold, wet, or windy it might be!

Date:

Astronomy

Jan. 10, 2013 Rise Set
Actual Time 7:28 AM PST 4:12 PM PST
Civil Twilight 6:53 AM PST 4:47 PM PST
Nautical Twilight 6:14 AM PST 5:26 PM PST
Astronomical Twilight 5:37 AM PST 6:03 PM PST
Moon 6:11 AM PST (1/10) 3:26 PM PST (1/10)
Length of Visible Light 9h 54m
Length of Day
8h 44m
Waning Crescent, 1% of the Moon is Illuminated
Jan 10
Waning Crescent
Jan 11
New
Jan 18
First Quarter
Jan 26
Full
Feb 3
Last Quarter

Hourly Weather History & Observations

Time (PST) Temp. Windchill Dew Point Humidity Pressure Visibility Wind Dir Wind Speed Gust Speed Precip Events Conditions
12:27 AM 24.8 °F 19.1 °F 21.2 °F 86% 29.61 in 0.5 mi Variable 4.6 mph - 0.00 in Fog , Snow Light Snow
12:53 AM 23.0 °F 15.8 °F 21.0 °F 92% 29.70 in 0.8 mi NNW 5.8 mph - 0.00 in   Mist
1:14 AM 23.0 °F 15.8 °F 19.4 °F 86% 29.61 in 1.5 mi Variable 5.8 mph - N/A   Overcast
1:26 AM 23.0 °F 18.4 °F 19.4 °F 86% 29.61 in 1.0 mi WNW 3.5 mph - N/A   Mist
1:36 AM 23.0 °F 15.8 °F 19.4 °F 86% 29.62 in 2.0 mi Variable 5.8 mph - N/A   Overcast
1:48 AM 23.0 °F 17.0 °F 19.4 °F 86% 29.62 in 3.0 mi Variable 4.6 mph - N/A   Overcast
1:53 AM 23.0 °F 17.0 °F 19.9 °F 88% 29.71 in 5.0 mi Variable 4.6 mph - N/A   Overcast
2:14 AM 23.0 °F 18.4 °F 19.4 °F 86% 29.62 in 2.5 mi WNW 3.5 mph - N/A   Overcast
2:32 AM 23.0 °F 17.0 °F 19.4 °F 86% 29.62 in 1.2 mi Variable 4.6 mph - N/A   Overcast
2:41 AM 23.0 °F 17.0 °F 19.4 °F 86% 29.61 in 2.0 mi Variable 4.6 mph - N/A   Overcast
2:51 AM 21.2 °F 13.6 °F 19.4 °F 93% 29.61 in 6.0 mi Variable 5.8 mph - N/A   Overcast
2:53 AM 21.9 °F 14.5 °F 19.0 °F 89% 29.70 in 6.0 mi Variable 5.8 mph - N/A   Overcast
3:01 AM 21.2 °F 13.6 °F 19.4 °F 93% 29.61 in 1.8 mi NW 5.8 mph - N/A   Overcast
3:10 AM 21.2 °F 14.9 °F 19.4 °F 93% 29.60 in 1.0 mi Variable 4.6 mph - N/A   Mist
3:29 AM 21.2 °F 13.6 °F 19.4 °F 93% 29.60 in 0.8 mi Variable 5.8 mph - N/A   Mist
3:45 AM 21.2 °F 14.9 °F 19.4 °F 93% 29.60 in 1.8 mi Variable 4.6 mph - N/A   Overcast
3:48 AM 21.2 °F 14.9 °F 19.4 °F 93% 29.60 in 3.0 mi Variable 4.6 mph - N/A   Overcast
3:53 AM 21.9 °F 15.7 °F 19.0 °F 89% 29.70 in 5.0 mi Variable 4.6 mph - N/A   Overcast
4:30 AM 21.2 °F 14.9 °F 19.4 °F 93% 29.59 in 2.0 mi Variable 4.6 mph - N/A   Overcast
4:41 AM 21.2 °F 16.4 °F 19.4 °F 93% 29.59 in 3.0 mi Variable 3.5 mph - N/A   Overcast
4:48 AM 21.2 °F 14.9 °F 19.4 °F 93% 29.59 in 1.8 mi Variable 4.6 mph - N/A   Overcast
4:53 AM 21.9 °F - 19.0 °F 89% 29.70 in 1.2 mi Calm Calm - N/A   Overcast
5:16 AM 21.2 °F - 17.6 °F 86% 29.60 in 0.8 mi Calm Calm - N/A   Mist
5:24 AM 21.2 °F 16.4 °F 17.6 °F 86% 29.60 in 1.5 mi Variable 3.5 mph - N/A   Overcast
5:28 AM 21.2 °F - 17.6 °F 86% 29.60 in 3.0 mi Calm Calm - N/A   Overcast
5:53 AM 21.0 °F 16.2 °F 18.0 °F 88% 29.72 in 9.0 mi Variable 3.5 mph - N/A   Overcast
6:16 AM 21.2 °F - 17.6 °F 86% 29.61 in 1.5 mi Calm Calm - N/A   Overcast
6:20 AM 21.2 °F 14.9 °F 17.6 °F 86% 29.61 in 0.8 mi Variable 4.6 mph - N/A   Mist
6:50 AM 21.2 °F 14.9 °F 17.6 °F 86% 29.61 in 1.2 mi Variable 4.6 mph - N/A   Overcast
6:53 AM 21.0 °F 16.2 °F 18.0 °F 88% 29.73 in 1.5 mi Variable 3.5 mph - N/A   Overcast
6:58 AM 21.2 °F 14.9 °F 17.6 °F 86% 29.61 in 1.0 mi Variable 4.6 mph - N/A   Mist
7:07 AM 21.2 °F 13.6 °F 17.6 °F 86% 29.60 in 0.5 mi NW 5.8 mph - N/A Fog Light Freezing Fog
7:53 AM 21.0 °F 12.4 °F 17.1 °F 85% 29.72 in 0.5 mi NNW 6.9 mph - N/A Fog Light Freezing Fog
8:08 AM 21.2 °F 12.6 °F 17.6 °F 86% 29.62 in 0.2 mi NW 6.9 mph - N/A Fog Light Freezing Fog
8:20 AM 21.2 °F 12.6 °F 17.6 °F 86% 29.63 in 0.5 mi Variable 6.9 mph - N/A Fog Light Freezing Fog
8:53 AM 21.0 °F 16.2 °F 18.0 °F 88% 29.75 in 0.2 mi Variable 3.5 mph - N/A Fog Light Freezing Fog
9:53 AM 21.0 °F 13.4 °F 17.1 °F 85% 29.75 in 0.2 mi NNW 5.8 mph - N/A Fog Light Freezing Fog
10:00 AM 21.2 °F 14.9 °F 17.6 °F 86% 29.62 in 0.8 mi Variable 4.6 mph - N/A   Mist
10:20 AM 21.2 °F 13.6 °F 17.6 °F 86% 29.61 in 0.2 mi Variable 5.8 mph - 0.00 in Fog , Snow Light Snow
10:53 AM 21.0 °F 13.4 °F 17.1 °F 85% 29.73 in 0.5 mi NNW 5.8 mph - 0.00 in Fog Light Freezing Fog
10:59 AM 21.2 °F 13.6 °F 17.6 °F 86% 29.59 in 1.0 mi NNW 5.8 mph - N/A   Mist
11:08 AM 21.2 °F 16.4 °F 17.6 °F 86% 29.60 in 0.5 mi Variable 3.5 mph - N/A Fog Light Freezing Fog
11:29 AM 21.2 °F 14.9 °F 17.6 °F 86% 29.58 in 0.5 mi NW 4.6 mph - 0.00 in Fog , Snow Light Snow
11:50 AM 21.2 °F 16.4 °F 17.6 °F 86% 29.58 in 0.8 mi Variable 3.5 mph - 0.00 in Snow Light Snow
11:53 AM 21.0 °F 14.6 °F 17.1 °F 85% 29.70 in 0.8 mi Variable 4.6 mph - 0.00 in Snow Light Snow
12:44 PM 21.2 °F 12.6 °F 15.8 °F 80% 29.58 in 0.2 mi NNW 6.9 mph - 0.02 in Snow Heavy Snow
12:53 PM 21.0 °F 12.4 °F 16.0 °F 81% 29.70 in 0.2 mi NW 6.9 mph - 0.03 in Snow Heavy Snow
1:15 PM 21.2 °F 13.6 °F 15.8 °F 80% 29.57 in 0.5 mi Variable 5.8 mph - 0.01 in Snow Snow
1:24 PM 19.4 °F 12.8 °F 15.8 °F 86% 29.57 in 0.2 mi NNW 4.6 mph - 0.01 in Fog , Snow Light Snow
1:38 PM 21.2 °F 14.9 °F 15.8 °F 80% 29.58 in 0.5 mi NW 4.6 mph - 0.01 in Snow Snow
1:53 PM 21.0 °F 13.4 °F 16.0 °F 81% 29.72 in 0.5 mi NNW 5.8 mph - 0.01 in Snow Snow
2:06 PM 21.2 °F 13.6 °F 15.8 °F 80% 29.58 in 0.2 mi NW 5.8 mph - 0.01 in Snow Heavy Snow
2:33 PM 21.2 °F 13.6 °F 15.8 °F 80% 29.59 in 0.5 mi Variable 5.8 mph - 0.01 in Snow Snow
2:53 PM 19.9 °F 14.9 °F 15.1 °F 81% 29.73 in 0.5 mi NNW 3.5 mph - 0.02 in Snow Snow
3:53 PM 19.0 °F 10.0 °F 15.1 °F 85% 29.74 in 0.8 mi NNW 6.9 mph - 0.01 in Snow Light Snow
4:28 PM 19.4 °F 11.5 °F 15.8 °F 86% 29.59 in 1.0 mi NW 5.8 mph - 0.01 in Snow Light Snow
4:53 PM 19.0 °F 11.1 °F 15.1 °F 85% 29.73 in 1.0 mi NNW 5.8 mph - 0.02 in Snow Light Snow
5:23 PM 19.4 °F 11.5 °F 15.8 °F 86% 29.59 in 0.8 mi NNW 5.8 mph - 0.00 in Snow Light Snow
5:53 PM 19.0 °F 11.1 °F 15.1 °F 85% 29.75 in 0.5 mi NNW 5.8 mph - 0.01 in Fog , Snow Snow
6:53 PM 19.0 °F 11.1 °F 14.0 °F 81% 29.75 in 0.8 mi NNW 5.8 mph - 0.04 in Snow Light Snow
7:53 PM 19.0 °F 10.0 °F 15.1 °F 85% 29.76 in 0.8 mi North 6.9 mph - 0.02 in Snow Light Snow
8:33 PM 19.4 °F - 15.8 °F 86% 29.61 in 0.5 mi Calm Calm - 0.03 in Fog , Snow Snow
8:48 PM 17.6 °F 12.3 °F 12.2 °F 79% 29.62 in 1.0 mi Variable 3.5 mph - 0.03 in Snow Light Snow
8:53 PM 18.0 °F 11.1 °F 12.9 °F 81% 29.78 in 1.2 mi Variable 4.6 mph - 0.03 in Snow Light Snow
9:04 PM 17.6 °F 9.3 °F 12.2 °F 79% 29.62 in 1.0 mi Variable 5.8 mph - 0.01 in Snow Light Snow
9:12 PM 17.6 °F - 12.2 °F 79% 29.62 in 0.5 mi Calm Calm - 0.01 in Snow Snow
9:53 PM 17.1 °F - 12.9 °F 84% 29.79 in 0.5 mi Calm Calm - 0.03 in Fog , Snow Snow
10:28 PM 17.6 °F - 12.2 °F 79% 29.62 in 0.8 mi Calm Calm - 0.02 in Snow Light Snow
10:36 PM 17.6 °F - 12.2 °F 79% 29.62 in 1.0 mi Calm Calm - 0.02 in Snow Light Snow
10:53 PM 16.0 °F - 10.9 °F 81% 29.79 in 1.2 mi Calm Calm - 0.02 in Snow Light Snow
11:35 PM 15.8 °F - 10.4 °F 79% 29.63 in 0.8 mi Calm Calm - 0.01 in Snow Light Snow
11:53 PM 16.0 °F - 10.9 °F 81% 29.80 in 0.8 mi Calm Calm - 0.01 in Snow Light Snow